Regional Weather Roundup
Issued by NWS

Home | Current Version | Previous Version | Text Only | Print | Product List | Glossary On
Versions: 1 2 3 4 5 6 7 8 9 10 11 12 13 14 15 16 17 18 19 20 21 22 23 24 25 26 27 28 29 30 31 32 33 34 35 36 37 38 39 40 41 42 43 44 45 46 47 48 49 50
000
ASUS43 KBIS 281010
RWRND

NORTH DAKOTA REGIONAL WEATHER ROUNDUP
NATIONAL WEATHER SERVICE BISMARCK ND
500 AM CDT FRI AUG 28 2015

NOTE: "FAIR" INDICATES FEW OR NO CLOUDS BELOW 12,000 FEET WITH NO
SIGNIFICANT WEATHER AND/OR OBSTRUCTIONS TO VISIBILITY.


NDZ001>003-009>011-017-281100-
NORTHWEST NORTH DAKOTA

CITY           SKY/WX    TMP DP  RH WIND       PRES   REMARKS
WILLISTON      CLEAR     65  62  90 S3        29.86S
MINOT          CLEAR     68  58  70 SW15      29.82S
MINOT AFB      CLEAR     66  64  91 SW10      29.80S
$$

NDZ018>021-031>035-040>046-281100-
SOUTHWEST NORTH DAKOTA

CITY           SKY/WX    TMP DP  RH WIND       PRES   REMARKS
BISMARCK       PTCLDY    61  59  93 CALM      29.91S
DICKINSON      PTCLDY    60  54  80 S7        29.90F
GARRISON         N/A     63  58  83 SW3       29.88R
HETTINGER ARPT PTCLDY    57  54  89 CALM      29.96S
$$

NDZ004>008-012>016-024-026-027-054-281100-
NORTHEAST NORTH DAKOTA

CITY           SKY/WX    TMP DP  RH WIND       PRES   REMARKS
GRAND FORKS    PTCLDY    63  62  97 S6        29.85R FOG
GRND FRKS AFB  PTCLDY    63  62  97 SW5       29.85R
DEVILS LAKE    CLOUDY    66  57  72 SW9       29.85R
$$

NDZ022-023-025-028>030-036>039-047>053-281100-
SOUTHEAST NORTH DAKOTA

CITY           SKY/WX    TMP DP  RH WIND       PRES   REMARKS
FARGO          PTCLDY    66  63  90 S6        29.90S
JAMESTOWN      CLEAR     61  59  93 S3        29.89F
$$




USA.gov is the U.S. government's official web portal to all federal, state and local government web resources and services.